FW7079 Weather Reports


Display with metric or nautical units.
time (UTC)temp
F
wind
direction
speed
MPH
gust
MPH
rain 1hr
in
rain 24hr
in
rain mn
in
humidity
%
barometer
mb
20260509083102 52 0 0.0 0.0 0.00 0.05 0.00 93 1011.2
20260509081556 53 0 0.0 0.0 0.00 0.05 0.00 93 1011.3
20260509080054 53 0 0.0 0.0 0.00 0.05 0.00 93 1011.5
20260509074606 54 0 0.0 0.0 0.00 0.05 0.00 93 1011.8
20260509073054 54 0 0.0 0.0 0.00 0.05 0.00 93 1011.8
20260509071607 54 0 0.0 0.0 0.00 0.05 0.00 93 1011.9
20260509070054 55 0 0.0 0.0 0.00 0.05 0.00 93 1011.8
20260509064557 55 0 0.0 0.0 0.00 0.05 0.00 93 1011.6
20260509063054 56 0 0.0 0.0 0.00 0.05 0.00 93 1011.8
20260509061601 57 0 0.0 0.0 0.00 0.05 0.00 93 1012.0
20260509060059 57 0 0.0 0.0 0.00 0.05 0.00 93 1012.1
20260509054607 57 0 0.0 0.0 0.00 0.05 0.00 93 1011.9
20260509053053 58 0 0.0 0.0 0.00 0.05 0.00 93 1011.9
20260509051603 58 0 0.0 0.0 0.00 0.05 0.00 93 1011.8
20260509050056 59 0 0.0 0.0 0.01 0.05 0.00 92 1011.7
20260509044552 59 0 0.0 0.0 0.01 0.05 0.05 93 1012.0
20260509043058 59 0 0.0 0.0 0.01 0.05 0.05 92 1012.0
20260509041554 59 0 0.0 0.0 0.01 0.05 0.05 92 1012.1
20260509040055 59 0 0.0 0.0 0.00 0.04 0.04 93 1012.0
20260509034553 59 0 0.0 0.0 0.00 0.04 0.04 92 1011.7
20260509033053 59 0 0.0 0.0 0.00 0.04 0.04 92 1011.2
20260509031617 59 0 0.0 0.0 0.00 0.04 0.04 91 1010.9
20260509030057 60 0 0.0 0.0 0.00 0.04 0.04 91 1010.2
20260509024549 60 0 0.0 0.0 0.00 0.04 0.04 91 1009.9
20260509023056 61 0 0.0 0.0 0.00 0.04 0.04 91 1009.9
20260509021550 61 0 0.0 0.0 0.00 0.04 0.04 90 1009.6
20260509020057 62 0 0.0 0.0 0.00 0.04 0.04 90 1009.5
20260509014556 63 0 0.0 0.0 0.00 0.04 0.04 90 1009.1
20260509013101 64 0 0.0 0.0 0.00 0.04 0.04 89 1008.6
20260509011553 65 0 0.0 0.0 0.00 0.04 0.04 89 1008.6
20260509010053 65 0 0.0 0.0 0.00 0.04 0.04 89 1008.7
20260509004555 66 0 0.0 1.0 0.00 0.04 0.04 88 1008.3
20260509003053 67 0 0.0 6.0 0.00 0.04 0.04 86 1007.8
20260509001551 68 0 0.0 2.0 0.00 0.04 0.04 88 1007.2
20260509000105 69 96 0.0 7.0 0.04 0.04 0.04 88 1007.1
20260508234603 70 0 0.0 1.0 0.04 0.04 0.04 90 1007.1
20260508233058 70 131 0.0 1.0 0.04 0.04 0.04 88 1006.4
20260508231551 72 0 0.0 3.0 0.04 0.04 0.04 81 1006.6
20260508224556 79 0 0.0 0.0 0.00 0.00 0.00 58 1007.2
20260508223054 81 136 1.0 6.0 0.00 0.00 0.00 53 1006.4
20260508221601 82 136 1.0 6.0 0.00 0.00 0.00 53 1006.4
20260508220056 82 132 2.0 8.0 0.00 0.00 0.00 53 1006.4
20260508214609 84 241 3.0 9.0 0.00 0.00 0.00 51 1006.6
20260508213101 83 132 2.0 0.0 0.00 0.00 0.00 51 1007.2
20260508211600 83 109 1.0 9.0 0.00 0.00 0.00 52 1007.3
20260508210058 83 136 1.0 6.0 0.00 0.00 0.00 53 1007.7
20260508204607 83 143 1.0 9.0 0.00 0.00 0.00 53 1008.1
20260508203059 84 148 2.0 6.0 0.00 0.00 0.00 51 1008.3
20260508201607 84 136 2.0 8.0 0.00 0.00 0.00 51 1008.6
20260508200106 84 130 2.0 7.0 0.00 0.00 0.00 53 1008.7
20260508194552 83 192 3.0 7.0 0.00 0.00 0.00 53 1008.9
20260508193056 83 143 3.0 7.0 0.00 0.00 0.00 51 1009.1
20260508191551 82 136 3.0 8.0 0.00 0.00 0.00 52 1009.3
20260508184555 81 0.0 0.0 0.00 0.00 0.00 54 1009.5
20260508183056 80 0.0 0.0 0.00 0.00 0.00 53 1009.7
20260508181612 80 136 2.0 4.0 0.00 0.00 0.00 54 1009.9
20260508180110 79 148 2.0 0.0 0.00 0.00 0.00 55 1010.3
20260508174607 78 136 1.0 9.0 0.00 0.00 0.00 55 1010.7
20260508173055 77 252 2.0 8.0 0.00 0.00 0.00 56 1010.8
20260508171555 75 195 2.0 9.0 0.00 0.00 0.00 56 1011.1
20260508170059 76 241 3.0 10.0 0.00 0.00 0.00 55 1011.6
20260508164557 75 136 3.0 10.0 0.00 0.00 0.00 54 1011.8
20260508163051 75 105 4.0 13.0 0.00 0.00 0.00 53 1012.1
20260508161553 75 209 4.0 10.0 0.00 0.00 0.00 54 1012.3
20260508160052 74 188 2.0 8.0 0.00 0.00 0.00 56 1012.3
20260508154556 73 0.0 0.0 0.00 0.00 0.00 55 1012.5
20260508153052 71 131 3.0 11.0 0.00 0.00 0.00 58 1012.8
20260508151553 70 207 3.0 10.0 0.00 0.00 0.00 63 1012.9
20260508150052 68 121 3.0 10.0 0.00 0.00 0.00 63 1013.0
20260508144552 67 234 2.0 13.0 0.00 0.00 0.00 64 1013.3
20260508143051 66 126 3.0 11.0 0.00 0.00 0.00 65 1013.2
20260508141600 65 180 3.0 9.0 0.00 0.00 0.00 66 1013.3
20260508140106 65 169 2.0 7.0 0.00 0.00 0.00 68 1013.4
20260508134552 63 158 4.0 9.0 0.00 0.00 0.00 70 1013.5
20260508133052 62 131 2.0 7.0 0.00 0.00 0.00 73 1013.6
20260508131603 60 142 1.0 6.0 0.00 0.00 0.00 76 1013.7
20260508130052 57 0 0.0 1.0 0.00 0.00 0.00 83 1013.7
20260508124556 56 0 0.0 3.0 0.00 0.00 0.00 86 1013.6
20260508123055 55 0 0.0 0.0 0.00 0.00 0.00 85 1013.4
20260508121559 55 0 0.0 1.0 0.00 0.00 0.00 84 1013.4
20260508120058 55 0 0.0 0.0 0.00 0.00 0.00 83 1013.3
20260508114550 55 0 0.0 1.0 0.00 0.00 0.00 83 1013.4
20260508113057 55 0 0.0 1.0 0.00 0.00 0.00 82 1013.4
20260508111557 56 0 0.0 1.0 0.00 0.00 0.00 81 1013.3
20260508110059 56 0 0.0 3.0 0.00 0.00 0.00 81 1013.2
20260508104552 56 0 0.0 1.0 0.00 0.00 0.00 81 1013.2
20260508103120 56 0 0.0 0.0 0.00 0.00 0.00 80 1013.0
20260508101604 57 0 0.0 3.0 0.00 0.00 0.00 79 1012.9
20260508100058 58 0 0.0 1.0 0.00 0.00 0.00 78 1012.9
20260508094612 58 0 0.0 4.0 0.00 0.00 0.00 78 1012.8
20260508093057 58 142 0.0 4.0 0.00 0.00 0.00 77 1012.9
20260508091555 58 126 0.0 3.0 0.00 0.00 0.00 77 1012.8
20260508090128 59 101 0.0 3.0 0.00 0.00 0.00 76 1012.8
20260508084554 59 0 0.0 2.0 0.00 0.00 0.00 75 1012.9